Content
SEND FEEDBACK

Daily
Averages
Monthly
Summary
United Kingdom

LAKENHEATH, ENGLAND


Home > Europe > United Kingdom > England
Elevation: 33 feet     Latitude: 52 24N     Longitude: 000 34E

WEATHER
 
SELECT A DAY
Number of Records: 172,546;   Date Range: 8/10/96 - 10/22/14
 
SHARE

PRINT THIS DATA

[ ← Previous Day ]
WEATHER ALMANAC - JANUARY 31, 2013
[ Next Day → ]
[ °C ]   °F
Weather ElementAverageHighLow
Temperature46 °F50.7 °F (12:59 pm)42.8 °F (7:03 am)
Dewpoint39.3 °F42.8 °F (9:59 am)34.2 °F (2:58 pm)
Humidity78.2 %87 % (6:54 am)56 % (2:58 pm)
Barometer29.76 in29.92 in (1:58 am)29.70 in (6:34 am)
Wind Speed17.8 mph32.2 mph (11:58 am)
Wind Gust49.5 mph (6:54 am)
Weather ElementAverage
Visibility6.1 mi
Wind DirectionWSW (246.8 °)

Weather ElementTotal
Precipitation0.06 in
Heating Degree Days18.3 (Base 65)
Averaged from 38 records on January 31, 2013
WEATHER CONDITIONS BREAKOUT
WIND DIRECTION BREAKOUT
WEATHER BY HOUR - JANUARY 31, 2013
[ °C ]   °F
Local TimeTemperatureDewpointHumidityBarometerVisibilityWind DirectionWind SpeedGust SpeedPrecipitationEventsConditions
1:58 AM43.5 °F38.7 °F83 %29.92 in6.2 miSW (220°)15.0 mphScattered Clouds
2:58 AM44.2 °F38.7 °F81 %29.91 in6.2 miSW (230°)16.1 mph21.9 mphMostly Cloudy
3:58 AM44.4 °F37.9 °F78 %29.84 in6.2 miSSW (210°)19.6 mph27.6 mphMostly Cloudy
5:58 AM46.6 °F40.6 °F80 %29.73 in6.2 miSSW (210°)18.4 mphOvercast
6:06 AM46.4 °F41.0 °F81 %29.72 in6.2 miSSW (210°)18.4 mph26.5 mphOvercast
6:34 AM48.2 °F41.0 °F76 %29.70 in6.2 miSW (220°)25.3 mph33.4 mphRainLight Rain
6:54 AM44.6 °F41.0 °F87 %29.74 in5.0 miWest (260°)23.0 mph49.5 mphRainRain
7:03 AM42.8 °F39.2 °F87 %29.74 in5.0 miWest (260°)19.6 mph27.6 mphRainLight Rain
7:35 AM44.6 °F41.0 °F87 %29.72 in6.2 miWest (260°)19.6 mph31.1 mphOvercast
7:48 AM44.6 °F41.0 °F87 %29.72 in6.2 miWest (260°)16.1 mphMostly Cloudy
7:58 AM44.8 °F40.3 °F84 %29.73 in6.2 miWSW (240°)12.7 mph0.03 inScattered Clouds
8:08 AM44.6 °F41.0 °F87 %29.73 in6.2 miWest (260°)15.0 mphRainLight Rain
8:15 AM44.6 °F41.0 °F87 %29.73 in5.0 miWest (260°)17.3 mphRainLight Rain
8:34 AM44.6 °F41.0 °F87 %29.72 in6.2 miWest (270°)19.6 mph27.6 mphRainLight Rain
8:37 AM44.6 °F41.0 °F87 %29.72 in6.2 miWest (270°)17.3 mph27.6 mphRainLight Rain
8:41 AM44.6 °F41.0 °F87 %29.72 in6.2 miWest (260°)13.8 mph25.3 mphRainLight Rain
8:44 AM44.6 °F41.0 °F87 %29.72 in6.2 miWest (260°)13.8 mph25.3 mphRainLight Rain
8:51 AM44.6 °F41.0 °F87 %29.72 in6.2 miWSW (240°)10.4 mphMostly Cloudy
8:58 AM44.4 °F40.8 °F87 %29.73 in6.2 miSW (230°)10.4 mph0.03 inMostly Cloudy
9:00 AM44.6 °F41.0 °F87 %29.72 in6.2 miSW (230°)10.4 mphScattered Clouds
9:58 AM48.6 °F42.4 °F79 %29.72 in6.2 miWSW (250°)16.1 mph24.2 mphMostly Cloudy
9:59 AM48.2 °F42.8 °F82 %29.71 in6.2 miWSW (250°)18.4 mph26.5 mphMostly Cloudy
10:35 AM48.2 °F41.0 °F76 %29.72 in6.2 miWest (260°)18.4 mph31.1 mphScattered Clouds
10:58 AM49.6 °F40.8 °F72 %29.73 in6.2 miWest (260°)20.7 mph29.9 mphClear
11:58 AM50.0 °F37.4 °F62 %29.73 in6.2 miWest (260°)32.2 mph40.3 mphMostly Cloudy
12:33 PM50.0 °F35.6 °F58 %29.74 in6.2 miWest (270°)29.9 mph41.4 mphPartly Cloudy
12:59 PM50.7 °F36.1 °F57 %29.75 in6.2 miWest (270°)29.9 mph44.9 mphScattered Clouds
1:58 PM49.8 °F36.0 °F59 %29.76 in6.2 miWest (270°)29.9 mph41.4 mphClear
2:58 PM49.1 °F34.2 °F56 %29.79 in6.2 miWest (270°)26.5 mph36.8 mphPartly Cloudy
3:58 PM47.5 °F34.7 °F61 %29.79 in6.2 miWest (260°)16.1 mph27.6 mphClear
4:58 PM46.9 °F35.4 °F64 %29.79 in6.2 miWSW (250°)17.3 mph24.2 mphClear
5:58 PM46.2 °F35.8 °F67 %29.81 in6.2 miWSW (250°)16.1 mphClear
6:58 PM44.2 °F36.5 °F74 %29.82 in6.2 miWSW (240°)11.5 mphPartly Cloudy
7:58 PM44.4 °F38.5 °F80 %29.82 in6.2 miWSW (240°)13.8 mphClear
8:58 PM44.6 °F39.0 °F81 %29.83 in6.2 miSW (230°)12.7 mphClear
9:58 PM44.1 °F39.4 °F84 %29.82 in6.2 miWSW (240°)11.5 mphClear
10:58 PM44.1 °F39.2 °F83 %29.81 in6.2 miSW (230°)13.8 mphClear
11:58 PM44.1 °F39.6 °F84 %29.80 in6.2 miSW (220°)11.5 mphClear
Hourly data recorded from EGUN, located miles away from Lakenheath, England







STORIES FROM OUR PARTNERS